Tracking 35237 objects as of 6-Sep-2026
HD Live streaming from Space Station
objects crossing your sky now

DELTA 1 DEB

Track DELTA 1 DEB now!
10-day predictions


NORAD ID: 7050
Int'l Code: 1973-086AS
Launch date: November 6, 1973
Source: United States (US)
Launch site: AIR FORCE WESTERN TEST RANGE (AFWTR)

Note: This is SATELLITE DEBRIS
Your satellite tracking list
Your tracking list is empty




NASA's NSSDC Master Catalog

Two Line Element Set (TLE):
1 07050U 73086AS  26248.41225720  .00000186  00000-0  13538-2 0  9998
2 07050 101.6733 227.9527 0052578  46.0770 108.7351 12.58314217408517
Source of the keplerian elements: AFSPC